KC5NAM Weather Reports


Display with metric or nautical units.
time (UTC)temp
F
wind
direction
speed
MPH
gust
MPH
rain 1hr
in
rain 24hr
in
rain mn
in
humidity
%
barometer
mb
20260503032534 60 0 0.0 4.0 0.00 0.00 0.00 75 1025.3
20260503032035 60 0 0.0 0.0 0.00 0.00 0.00 75 1025.3
20260503031543 61 0 0.0 0.0 0.00 0.00 0.00 75 1025.3
20260503031035 61 0 0.0 0.0 0.00 0.00 0.00 75 1025.3
20260503030535 61 0 0.0 0.0 0.00 0.00 0.00 74 1025.2
20260503030041 61 0 0.0 0.0 0.00 0.00 0.00 74 1025.1
20260503025534 61 0 0.0 0.0 0.00 0.00 0.00 75 1025.1
20260503025034 62 0 0.0 0.0 0.00 0.00 0.00 76 1025.1
20260503024542 62 0 0.0 0.0 0.00 0.00 0.00 74 1025.1
20260503024034 62 0 0.0 0.0 0.00 0.00 0.00 72 1025.0
20260503023534 62 0 0.0 0.0 0.00 0.00 0.00 69 1025.0
20260503023044 63 0 0.0 0.0 0.00 0.00 0.00 70 1025.0
20260503022534 63 0 0.0 0.0 0.00 0.00 0.00 69 1024.9
20260503022035 63 0 0.0 0.0 0.00 0.00 0.00 67 1024.7
20260503021550 64 0 0.0 0.0 0.00 0.00 0.00 66 1024.7
20260503021034 64 0 0.0 0.0 0.00 0.00 0.00 66 1024.6
20260503020536 65 0 0.0 0.0 0.00 0.00 0.00 66 1024.5
20260503020056 65 0 0.0 0.0 0.00 0.00 0.00 64 1024.5
20260503015535 65 0 0.0 0.0 0.00 0.00 0.00 63 1024.5
20260503015034 66 0 0.0 0.0 0.00 0.00 0.00 63 1024.5
20260503014552 67 0 0.0 0.0 0.00 0.00 0.00 61 1024.5
20260503014035 67 0 0.0 0.0 0.00 0.00 0.00 60 1024.5
20260503013534 68 0 0.0 0.0 0.00 0.00 0.00 59 1024.5
20260503013051 68 0 0.0 0.0 0.00 0.00 0.00 57 1024.6
20260503012536 69 0 0.0 0.0 0.00 0.00 0.00 56 1024.6
20260503012034 69 0 0.0 0.0 0.00 0.00 0.00 54 1024.5
20260503011553 69 0 0.0 2.0 0.00 0.00 0.00 53 1024.5
20260503011034 70 0 0.0 2.0 0.00 0.00 0.00 53 1024.4
20260503010534 70 42 0.0 1.0 0.00 0.00 0.00 53 1024.4
20260503010048 71 0 0.0 2.0 0.00 0.00 0.00 52 1024.4
20260503005535 71 0 0.0 3.0 0.00 0.00 0.00 50 1024.3
20260503005036 71 0 0.0 6.0 0.00 0.00 0.00 50 1024.2
20260503004543 72 0 0.0 6.0 0.00 0.00 0.00 49 1024.2
20260503004034 72 0 0.0 6.0 0.00 0.00 0.00 48 1024.2
20260503003534 72 0 0.0 5.0 0.00 0.00 0.00 47 1024.1
20260503003041 72 0 0.0 6.0 0.00 0.00 0.00 46 1024.0
20260503002537 73 5 1.0 6.0 0.00 0.00 0.00 46 1024.1
20260503002034 73 0 0.0 3.0 0.00 0.00 0.00 47 1023.9
20260503001605 73 0 0.0 3.0 0.00 0.00 0.00 45 1024.0
20260503001036 73 75 0.0 6.0 0.00 0.00 0.00 46 1024.1
20260503000534 73 49 1.0 6.0 0.00 0.00 0.00 44 1024.0
20260503000056 73 0 1.0 7.0 0.00 0.00 0.00 45 1024.1
20260502235534 74 74 1.0 7.0 0.00 0.00 0.00 46 1024.0
20260502235034 74 0 0.0 8.0 0.00 0.00 0.00 46 1024.1
20260502234550 74 46 2.0 8.0 0.00 0.00 0.00 45 1024.0
20260502234035 74 52 1.0 9.0 0.00 0.00 0.00 45 1024.1
20260502233536 74 5 1.0 9.0 0.00 0.00 0.00 44 1024.1
20260502233043 75 360 0.0 9.0 0.00 0.00 0.00 44 1024.1
20260502232534 75 0 1.0 10.0 0.00 0.00 0.00 43 1024.1
20260502232034 75 352 0.0 10.0 0.00 0.00 0.00 44 1024.1
20260502231543 75 302 2.0 10.0 0.00 0.00 0.00 43 1024.1
20260502231034 75 19 1.0 8.0 0.00 0.00 0.00 45 1024.0
20260502230535 75 5 2.0 8.0 0.00 0.00 0.00 43 1024.0
20260502230040 76 0 1.0 5.0 0.00 0.00 0.00 43 1024.0
20260502225534 76 0 1.0 10.0 0.00 0.00 0.00 43 1023.7
20260502225035 76 0 1.0 10.0 0.00 0.00 0.00 43 1023.9
20260502224554 76 304 2.0 9.0 0.00 0.00 0.00 42 1024.1
20260502224034 76 300 0.0 7.0 0.00 0.00 0.00 42 1024.0
20260502223535 76 86 1.0 6.0 0.00 0.00 0.00 42 1023.8
20260502223036 76 329 1.0 10.0 0.00 0.00 0.00 42 1023.9
20260502222535 75 341 1.0 10.0 0.00 0.00 0.00 43 1024.0
20260502222035 76 0 1.0 11.0 0.00 0.00 0.00 43 1024.0
20260502221544 76 0 2.0 11.0 0.00 0.00 0.00 42 1024.1
20260502221034 77 360 1.0 10.0 0.00 0.00 0.00 41 1024.1
20260502220533 77 13 3.0 11.0 0.00 0.00 0.00 41 1024.1
20260502220053 77 9 1.0 11.0 0.00 0.00 0.00 42 1024.2
20260502215536 77 64 2.0 11.0 0.00 0.12 0.00 42 1024.2
20260502215034 77 360 3.0 9.0 0.00 0.12 0.00 43 1024.4
20260502214550 77 46 2.0 9.0 0.00 0.12 0.00 42 1024.2
20260502214034 77 331 2.0 10.0 0.00 0.12 0.00 43 1024.1
20260502213534 77 9 1.0 10.0 0.00 0.12 0.00 42 1024.1
20260502213056 77 318 3.0 15.0 0.00 0.12 0.00 41 1024.3
20260502212534 77 333 3.0 15.0 0.00 0.12 0.00 41 1024.4
20260502212034 77 67 3.0 11.0 0.00 0.12 0.00 42 1024.5
20260502211545 77 61 2.0 11.0 0.00 0.12 0.00 42 1024.5
20260502211038 77 295 1.0 11.0 0.00 0.12 0.00 44 1024.5
20260502210534 76 31 2.0 11.0 0.00 0.12 0.00 43 1024.7
20260502210043 76 40 3.0 11.0 0.00 0.12 0.00 41 1024.7
20260502205535 76 288 3.0 12.0 0.00 0.13 0.00 42 1024.8
20260502205034 76 70 2.0 12.0 0.00 0.13 0.00 44 1024.8
20260502204551 76 24 4.0 13.0 0.00 0.13 0.00 44 1025.0
20260502204035 76 325 3.0 13.0 0.00 0.13 0.00 42 1025.1
20260502203534 76 352 2.0 11.0 0.00 0.13 0.00 45 1025.0
20260502203101 76 32 1.0 10.0 0.00 0.13 0.00 45 1025.0
20260502202536 76 59 3.0 10.0 0.00 0.13 0.00 47 1025.1
20260502202034 76 350 2.0 14.0 0.00 0.13 0.00 48 1025.2
20260502201548 76 0 3.0 14.0 0.00 0.13 0.00 46 1025.2
20260502201034 75 13 3.0 14.0 0.00 0.13 0.00 46 1025.2
20260502200534 75 103 2.0 13.0 0.00 0.13 0.00 52 1025.3
20260502200047 75 321 3.0 13.0 0.00 0.13 0.00 48 1025.3
20260502195536 75 298 2.0 13.0 0.00 0.13 0.00 49 1025.4
20260502195033 75 347 5.0 13.0 0.00 0.13 0.00 48 1025.5
20260502194550 74 0 3.0 12.0 0.00 0.13 0.00 48 1025.3
20260502194035 74 0 2.0 13.0 0.00 0.13 0.00 52 1025.3
20260502193535 75 307 3.0 13.0 0.00 0.13 0.00 51 1025.5
20260502193043 74 69 4.0 14.0 0.00 0.13 0.00 50 1025.4
20260502192537 75 5 5.0 14.0 0.00 0.13 0.00 48 1025.5
20260502192034 76 330 4.0 13.0 0.00 0.13 0.00 48 1025.4
20260502191553 75 27 1.0 13.0 0.00 0.13 0.00 49 1025.5
20260502191038 75 70 1.0 14.0 0.00 0.13 0.00 51 1025.6
20260502190534 75 28 2.0 14.0 0.00 0.13 0.00 48 1025.6
20260502190042 75 319 1.0 12.0 0.00 0.13 0.00 48 1025.6
20260502185534 75 51 3.0 14.0 0.00 0.16 0.00 50 1025.6
20260502185034 75 56 3.0 14.0 0.00 0.16 0.00 49 1025.7
20260502184542 75 76 4.0 9.0 0.00 0.16 0.00 49 1025.7
20260502184034 74 35 2.0 12.0 0.00 0.16 0.00 53 1025.8
20260502183534 74 56 3.0 12.0 0.00 0.16 0.00 50 1025.8
20260502183056 74 37 2.0 12.0 0.00 0.16 0.00 53 1025.9
20260502182535 74 34 4.0 10.0 0.00 0.16 0.00 52 1026.0
20260502182034 73 49 3.0 11.0 0.00 0.16 0.00 54 1026.0
20260502181544 73 76 3.0 13.0 0.00 0.16 0.00 52 1026.0
20260502181036 73 352 4.0 13.0 0.00 0.16 0.00 53 1026.2
20260502180534 73 343 4.0 12.0 0.00 0.16 0.00 54 1026.3
20260502164034 70 0 3.0 11.0 0.00 0.70 0.00 56 1027.2
20260502163534 69 50 2.0 9.0 0.00 0.70 0.00 60 1027.1
20260502163101 69 317 0.0 9.0 0.00 0.70 0.00 58 1027.1
20260502162534 69 0 2.0 9.0 0.00 0.70 0.00 59 1027.2
20260502162034 69 5 3.0 9.0 0.00 0.70 0.00 61 1027.2
20260502161543 68 72 3.0 9.0 0.00 0.70 0.00 61 1027.1
20260502161035 68 79 1.0 10.0 0.00 0.70 0.00 60 1027.1
20260502160540 68 350 2.0 10.0 0.00 0.70 0.00 60 1027.1
20260502152037 64 82 3.0 9.0 0.00 0.79 0.00 68 1026.7
20260502151551 63 75 2.0 5.0 0.00 0.79 0.00 68 1026.6
20260502151037 62 70 1.0 9.0 0.00 0.79 0.00 71 1026.7
20260502150536 62 32 1.0 9.0 0.00 0.79 0.00 70 1026.6
20260502130536 55 329 2.0 11.0 0.00 0.94 0.00 84 1025.0
20260502123534 53 0 1.0 15.0 0.00 0.96 0.00 86 1024.4
20260502123047 53 0 1.0 15.0 0.00 0.96 0.00 86 1024.2
20260502122535 53 15 3.0 15.0 0.00 0.96 0.00 86 1024.1
20260502122034 53 40 2.0 8.0 0.00 0.96 0.00 86 1024.1
20260502121551 53 312 1.0 11.0 0.00 0.96 0.00 86 1024.0
20260502121034 52 10 2.0 11.0 0.00 0.96 0.00 87 1023.9
20260502120534 52 14 1.0 11.0 0.00 0.96 0.00 87 1023.8
20260502115534 52 352 1.0 9.0 0.00 1.42 0.00 87 1023.8
20260502115036 52 352 2.0 8.0 0.00 1.42 0.00 87 1023.7
20260502114549 52 0 1.0 8.0 0.00 1.42 0.00 87 1023.6
20260502114035 52 0 1.0 9.0 0.00 1.42 0.00 87 1023.6
20260502113535 53 9 1.0 9.0 0.00 1.42 0.00 87 1023.5
20260502113046 53 305 1.0 8.0 0.00 1.42 0.00 88 1023.4
20260502112534 53 22 1.0 8.0 0.00 1.42 0.00 88 1023.4
20260502112035 53 0 2.0 8.0 0.00 1.42 0.00 88 1023.5
20260502111546 53 15 1.0 8.0 0.00 1.42 0.00 88 1023.5
20260502111035 53 0 1.0 8.0 0.00 1.42 0.00 88 1023.4
20260502110534 53 324 1.0 9.0 0.00 1.42 0.00 88 1023.4
20260502110050 53 342 1.0 9.0 0.00 1.42 0.00 88 1023.3
20260502105535 53 0 3.0 11.0 0.00 1.53 0.00 88 1023.1
20260502105034 53 348 2.0 11.0 0.00 1.53 0.00 88 1023.1
20260502104546 53 313 2.0 10.0 0.00 1.53 0.00 88 1023.0
20260502104034 53 0 1.0 10.0 0.00 1.53 0.00 89 1023.0
20260502103534 53 19 2.0 10.0 0.00 1.53 0.00 89 1023.0
20260502103045 53 349 1.0 8.0 0.00 1.53 0.00 89 1022.8
20260502102534 53 5 2.0 8.0 0.00 1.53 0.00 89 1022.7
20260502102034 53 0 1.0 7.0 0.00 1.53 0.00 90 1022.7
20260502101550 53 0 2.0 9.0 0.00 1.53 0.00 90 1022.5
20260502101034 53 327 0.0 9.0 0.00 1.53 0.00 90 1022.6
20260502100534 53 331 1.0 9.0 0.00 1.53 0.00 90 1022.5
20260502091036 53 0 0.0 2.0 0.00 1.62 0.00 90 1022.3
20260502090536 53 349 0.0 3.0 0.00 1.62 0.00 89 1022.3
20260502071038 54 108 3.0 14.0 0.00 1.81 0.00 86 1021.2
20260502070536 54 323 2.0 14.0 0.00 1.81 0.00 86 1021.3
20260502070054 54 346 3.0 12.0 0.00 1.81 0.00 86 1021.4
20260502065538 54 5 3.0 13.0 0.00 1.82 0.00 85 1021.2
20260502065036 54 0 3.0 13.0 0.00 1.82 0.00 85 1021.3
20260502064550 54 346 3.0 13.0 0.00 1.82 0.00 85 1021.5
20260502064037 55 352 3.0 11.0 0.00 1.82 0.00 85 1021.5
20260502063535 55 320 3.0 11.0 0.00 1.82 0.00 85 1021.3
20260502063048 55 22 4.0 17.0 0.00 1.82 0.00 85 1021.4
20260502062534 55 32 3.0 17.0 0.00 1.82 0.00 85 1021.4
20260502062035 55 306 3.0 12.0 0.00 1.82 0.00 85 1021.3
20260502061546 55 352 4.0 14.0 0.00 1.82 0.00 85 1021.3
20260502061034 55 329 2.0 15.0 0.00 1.82 0.00 85 1021.4
20260502060535 55 360 3.0 15.0 0.00 1.82 0.00 85 1021.4
20260502060057 55 340 3.0 12.0 0.00 1.82 0.00 85 1021.4
20260502055535 55 311 2.0 12.0 0.00 1.87 0.00 85 1021.5
20260502055034 55 352 3.0 14.0 0.00 1.87 0.00 85 1021.2
20260502054554 55 20 4.0 14.0 0.00 1.87 0.00 84 1021.1
20260502054034 55 23 5.0 14.0 0.00 1.87 0.00 84 1020.9
20260502053535 55 328 4.0 14.0 0.00 1.87 0.00 84 1020.9
20260502053042 55 42 4.0 14.0 0.00 1.87 0.00 84 1021.1
20260502052535 55 58 4.0 14.0 0.00 1.87 0.00 84 1021.0
20260502052037 56 350 2.0 17.0 0.00 1.87 0.00 84 1021.0
20260502051545 56 327 6.0 17.0 0.00 1.87 0.00 84 1021.1
20260502051035 56 315 5.0 14.0 0.00 1.87 0.00 84 1021.3
20260502050535 56 309 4.0 15.0 0.00 1.87 0.00 84 1021.4
20260502050044 56 299 5.0 15.0 0.00 1.87 0.00 84 1021.4
20260502045535 56 352 5.0 14.0 0.00 1.89 1.87 84 1021.4
20260502045038 56 331 3.0 16.0 0.00 1.89 1.87 84 1021.3
20260502044549 56 315 5.0 16.0 0.00 1.89 1.87 84 1021.2
20260502044035 56 336 5.0 14.0 0.00 1.89 1.87 85 1021.1
20260502043534 56 5 4.0 18.0 0.00 1.89 1.87 85 1021.0
20260502043047 56 332 4.0 18.0 0.00 1.89 1.87 85 1021.1
20260502042534 56 10 4.0 12.0 0.00 1.89 1.87 86 1021.2
20260502042036 56 318 3.0 12.0 0.00 1.89 1.87 86 1021.3
20260502041550 56 342 4.0 13.0 0.00 1.89 1.87 86 1021.3
20260502041033 56 5 3.0 14.0 0.00 1.89 1.87 87 1021.2
20260502040535 56 18 5.0 14.0 0.00 1.89 1.87 87 1021.1
20260502040047 56 348 3.0 12.0 0.00 1.89 1.87 87 1021.1
20260502035535 56 284 4.0 17.0 0.00 1.94 1.87 87 1020.9
20260502035035 56 311 6.0 17.0 0.00 1.94 1.87 87 1021.0
20260502034542 56 344 3.0 15.0 0.00 1.94 1.87 87 1020.9
20260502034035 56 345 5.0 15.0 0.00 1.94 1.87 87 1020.7
20260502033535 56 20 6.0 14.0 0.00 1.94 1.87 87 1020.8
20260502033051 57 351 3.0 13.0 0.00 1.94 1.87 87 1020.5